Miscellaneous Local Product
Issued by NWS North Platte, NE

Home | Current Version | Previous Version | Graphics & Text | Print | Product List | Glossary On
Versions: 1 2 3 4 5 6 7 8 9 10 11 12 13 14 15 16 17 18 19 20 21 22 23 24 25 26 27 28 29 30 31 32 33 34 35 36 37 38 39 40 41 42 43 44 45 46 47 48 49 50
000
AXUS43 KLBF 251610
MISLBF


WESTERN AND NORTH CENTRAL NEBRASKA HOURLY WEATHER ROUNDUP
NATIONAL WEATHER SERVICE NORTH PLATTE NE
1100 AM CDT MON JUL 25 2016

NOTE: "FAIR" INDICATES FEW OR NO CLOUDS BELOW 12,000 FEET WITH NO
SIGNIFICANT WEATHER AND/OR OBSTRUCTIONS TO VISIBILITY.

NOTE: STATIONS NOT REPORTING VARIABLES SUCH AS SKY/WEATHER OR
PRESSURE ARE PROVIDED BY RAWS AND APRS NETWORKS AND ARE NOT UNDER
NATIONAL WEATHER SERVICE QUALITY CONTROL.

...OBSERVATIONS IN AND NEAR THE EASTERN PANHANDLE OF NEBRASKA...

CITY           SKY/WX    TMP DP  RH WIND       PRES   REMARKS
PINE RIDGE     SUNNY     81  57  43 S17G23    30.13F
CHADRON        SUNNY     81  53  37 S17       30.12F
ALLIANCE       SUNNY     76  57  51 S15G23    30.18F
SIDNEY         SUNNY     76  56  49 SE22G29   30.21F
$$

...OBSERVATIONS IN NORTHERN NEBRASKA AND FAR SOUTHERN SOUTH DAKOTA...

CITY           SKY/WX    TMP DP  RH WIND       PRES   REMARKS
WINNER         FAIR      86  45  23 S20G25    30.12F
VALENTINE      SUNNY     82  55  39 S20       30.15F
THEDFORD       SUNNY     80  57  45 SE17      30.20S
AINSWORTH      SUNNY     80  47  31 S17G23    30.17F
O`NEILL        SUNNY     82  53  36 S15       30.17S
ORD            SUNNY     77  55  46 SE13      30.17F
BROKEN BOW     SUNNY     76  63  64 SE10      30.18F
VALENTINE NWR    N/A     78  57  48 S13         N/A
BUTTE            N/A     80  57  45 SE15G23     N/A
HALSEY           N/A     77  51  40 S9G16       N/A
EWING            N/A     81  63  53 S7          N/A
$$

...OBSERVATIONS IN SOUTHWEST NEBRASKA AND FAR NORTHEAST COLORADO...

CITY           SKY/WX    TMP DP  RH WIND       PRES   REMARKS
WRAY           FAIR      73  59  60 SE8       30.20
HOLYOKE        FAIR     N/A N/A N/A W12       30.20F
IMPERIAL       SUNNY     76  60  57 SE12      30.19S
OGALLALA       SUNNY     78  59  52 S12       30.19F
NORTH PLATTE   SUNNY     76  65  68 SE9       30.19S
MCCOOK         SUNNY     80  62  54 SE14      30.18S
LEXINGTON      SUNNY     77  64  63 SE14      30.18S
STAPLETON        N/A     77  64  63 CALM        N/A
GOTHENBURG       N/A     73  60  63 E8          N/A
CALLAWAY         N/A     74  64  70 S12         N/A
$$

...OBSERVATIONS IN CENTRAL LINCOLN COUNTY AREA...

CITY           SKY/WX    TMP DP  RH WIND       PRES   REMARKS
N.P. AIRPORT   SUNNY     76  65  68 SE9       30.19S
N.P. DOWNTOWN    N/A     76  65  70 MISG        N/A
N.P. SOUTHEAST   N/A     77  65  66 E3          N/A
N.P. HILLCREST   N/A     75  66  73 SE9G18      N/A
$$

...SOME OBSERVATIONS FROM AROUND THE REGION...

CITY           SKY/WX    TMP DP  RH WIND       PRES   REMARKS
DENVER         MOSUNNY   74  55  51 E8        30.22S
LARAMIE        SUNNY     74  40  29 E6        30.33S
CHEYENNE       SUNNY     73  58  59 S9        30.25S
SCOTTSBLUFF    SUNNY     78  55  44 S13G22    30.16F
RAPID CITY     SUNNY     82  57  42 S15G23    30.08F
BISMARCK       SUNNY     81  63  54 SW8       29.99F
PIERRE         SUNNY     87  58  37 S18       30.04F
SIOUX FALLS    MOSUNNY   79  62  56 SW5       30.13S
OMAHA          MOSUNNY   80  65  59 S7        30.13S
GRAND ISLAND   CLOUDY    77  62  59 SE9       30.17F
KANSAS CITY    CLOUDY    76  67  73 CALM      30.12R
WICHITA        CLOUDY    76  68  76 E7        30.08R
OKLAHOMA CITY  CLOUDY    87  70  56 NE5       30.04S HX  92
DALLAS         CLOUDY    87  72  60 CALM      29.98S HX  93
AMARILLO       SUNNY     87  62  43 VRB3      30.15F
DODGE CITY     CLOUDY    75  67  76 E12G18    30.17R
HAYS           CLOUDY    72  63  73 CALM      30.15F
GOODLAND       SUNNY     75  62  64 SE3       30.20S
$$




USA.gov is the U.S. government's official web portal to all federal, state and local government web resources and services.